Wind_Speed
13 13 11 10 10 10 10 9 10 10 11 12 12 12 14 14 15 15 15 16 16 17 19 18 17 17 18 18 20 20 19 18 17 16 15 13 13 14 14 13 13 13 13
16 13 12 11 11 10 9 9 10 10 11 10 11 11 13 13 14 14 15 15 15 16 16 16 17 17 16 17 18 18 17 17 14 10 14 13 12 12 13 12 13 12 12
11 12 13 11 11 10 10 10 10 10 10 10 10 11 12 12 13 13 14 14 14 14 14 15 16 16 16 17 17 17 18 18 18 14 12 14 13 10 11 11 11 11 10
11 12 13 12 11 11 10 10 10 10 10 10 11 11 11 12 11 12 12 13 13 14 14 14 15 15 14 15 15 16 18 20 17 15 15 12 11 10 10 9 9 9 8
16 13 13 12 12 11 10 10 10 10 10 11 11 10 11 10 10 11 11 11 12 12 12 13 13 13 13 13 14 14 16 17 17 13 12 11 12 11 9 8 8 8 7
15 12 12 11 12 11 11 10 10 10 10 10 10 11 9 9 9 9 10 10 10 10 11 12 12 12 12 12 13 13 14 14 15 13 11 10 14 11 10 8 7 7 6
15 12 12 12 12 12 12 11 10 9 9 9 9 9 8 8 7 8 9 9 9 9 10 10 11 12 12 12 12 11 10 12 11 10 11 11 12 13 11 8 7 6 5
14 12 13 12 12 11 11 11 10 9 9 8 8 8 7 8 7 7 7 8 7 8 8 8 9 10 11 12 12 11 9 11 10 8 10 11 11 10 10 9 7 5 4
13 10 11 13 12 11 11 10 8 8 8 9 9 8 8 8 7 7 7 6 6 5 6 6 7 8 9 10 11 8 8 7 7 5 7 9 10 10 9 7 6 6 5
14 12 11 12 12 11 11 10 10 9 8 8 9 8 8 8 7 6 6 5 5 4 4 4 5 7 7 8 12 8 7 8 3 4 4 7 8 9 9 8 7 6 5
17 16 14 12 12 11 10 10 9 8 7 7 8 10 11 7 5 5 5 5 4 3 3 4 5 5 5 4 7 7 8 10 6 4 4 5 5 7 7 6 7 7 7
22 18 18 13 14 12 9 9 9 8 8 8 9 10 8 7 6 3 4 4 3 3 5 6 6 5 5 5 5 5 4 6 5 4 6 6 5 5 6 6 7 7 6
24 21 20 18 17 14 11 8 10 10 10 8 8 8 8 8 6 5 4 3 2 2 1 2 3 4 4 1 1 1 2 3 1 3 4 6 6 6 5 6 6 7 7
24 23 20 19 17 17 12 10 9 10 11 9 9 8 8 6 6 5 4 3 2 1 1 2 2 1 2 0 2 3 3 3 4 4 3 5 7 7 7 8 8 8 8
23 24 23 20 19 16 14 13 12 12 12 9 9 8 10 8 7 7 5 5 4 5 5 5 4 4 5 2 1 2 2 2 2 3 3 4 7 8 9 9 8 9 9
27 24 25 23 21 18 16 15 13 15 15 12 14 9 14 12 11 9 9 9 8 8 6 6 5 4 3 3 4 5 6 7 5 5 7 7 7 7 7 9 10 10 10
31 28 27 26 23 21 20 16 14 13 15 15 14 11 13 11 12 12 11 10 10 8 8 6 5 4 3 2 3 3 5 4 4 4 5 2 5 5 8 11 10 11 10
31 32 29 27 25 21 22 19 18 15 16 15 14 13 12 13 12 12 11 11 10 7 6 6 6 5 5 3 3 5 5 4 5 3 4 6 6 8 11 9 8 9 8
33 34 32 29 28 24 23 20 19 17 15 14 15 15 15 15 14 14 12 11 9 8 7 6 6 4 4 6 6 7 7 9 8 9 6 3 4 8 9 6 5 6 7
30 33 33 32 30 28 24 21 20 19 18 17 17 16 15 15 14 13 12 11 9 8 8 6 6 5 4 5 7 10 10 10 8 8 7 6 5 5 6 6 4 3 3
28 32 35 36 32 31 27 25 24 23 21 20 19 18 16 15 15 15 13 12 10 9 7 7 5 5 5 5 7 5 7 8 10 8 7 7 6 5 6 4 6 3 5
31 29 33 35 35 34 32 29 26 24 22 21 19 18 17 16 14 14 13 11 10 10 8 7 7 4 3 4 3 3 3 4 2 7 7 6 6 6 7 5 4 2 4
25 26 29 33 34 34 30 27 20 20 20 20 20 20 20 18 17 15 14 12 11 10 9 7 6 6 5 2 4 2 2 2 4 3 7 7 7 8 5 4 3 2 4
18 18 19 23 30 31 29 29 28 24 21 25 26 25 23 21 19 17 16 15 14 12 12 10 9 8 7 7 5 8 7 5 2 3 3 6 9 7 7 6 4 4 6
5 10 11 11 19 28 29 29 28 25 25 21 24 24 23 23 22 20 19 18 17 15 13 12 11 11 10 9 9 5 5 8 10 7 3 6 7 10 9 8 8 5 6
11 6 3 5 6 18 24 24 25 26 24 22 19 24 25 24 24 23 22 21 19 17 16 14 13 12 10 10 9 9 9 5 3 5 3 5 7 9 10 9 8 5 7
Wind_Direction
137 137 133 124 119 114 112 110 105 97 98 96 94 85 84 85 79 76 73 72 74 67 66 62 63 72 66 62 65 68 67 62 59 61 62 68 78 78 75 83 84 84 87
142 136 132 128 124 122 117 114 113 108 105 101 100 92 92 88 84 80 78 78 79 76 74 78 70 67 65 66 68 70 68 55 47 62 63 66 68 74 77 71 76 75 81
145 137 134 131 125 123 122 119 116 115 111 112 103 96 95 93 86 83 79 78 78 77 78 73 75 71 68 68 66 68 62 55 68 68 71 64 64 67 71 69 70 71 69
151 137 133 131 127 125 124 122 121 118 113 114 116 109 104 102 91 86 82 77 76 75 76 76 77 76 71 67 68 71 59 60 62 63 81 66 53 68 72 69 72 71 70
144 138 131 134 131 132 131 130 128 125 121 120 124 117 113 105 101 95 89 84 80 78 77 75 73 71 68 64 65 71 65 64 60 64 63 51 56 58 71 84 81 73 73
134 137 139 144 142 140 136 135 133 129 127 124 125 126 126 113 104 95 93 91 87 83 79 74 72 71 66 60 60 66 73 68 56 58 46 55 64 63 67 69 69 69 72
145 146 149 149 145 144 143 141 138 134 132 132 130 128 129 127 118 106 104 101 97 91 83 79 72 62 58 57 55 61 70 67 63 53 48 63 65 59 64 71 71 69 62
145 144 154 152 151 151 150 148 143 141 141 141 141 136 134 140 132 120 115 111 106 98 88 79 68 55 52 44 42 48 66 68 64 53 50 59 65 62 64 66 71 67 61
145 150 159 161 160 158 157 155 155 153 150 149 148 150 140 146 143 136 129 126 118 110 99 83 60 53 46 36 29 41 72 71 67 66 55 51 64 58 57 60 62 60 60
161 174 172 168 172 168 168 165 160 163 162 159 156 152 146 147 148 147 147 150 139 119 89 58 48 43 36 44 39 49 47 40 29 119 60 40 57 51 49 49 48 43 31
175 178 177 168 162 166 170 172 169 168 166 159 152 145 134 125 133 153 148 154 144 119 74 47 42 57 43 51 59 37 51 45 67 93 42 23 43 46 38 30 26 23 21
182 179 174 174 179 176 170 184 175 168 156 149 148 146 145 160 161 150 158 137 110 94 78 59 50 43 35 62 57 26 359 39 19 8 27 18 19 36 26 18 12 9 1
183 184 190 182 183 182 186 177 164 160 157 148 160 156 157 171 197 152 137 135 122 69 58 358 5 9 20 45 29 337 22 66 32 18 11 354 352 336 336 340 346 346 345
189 188 192 192 189 193 189 186 179 175 174 178 177 181 175 173 170 183 180 178 207 219 265 273 278 86 358 69 42 349 356 334 356 343 336 336 347 345 338 330 329 324 328
198 194 193 191 191 193 194 187 194 193 190 183 190 197 180 194 190 191 186 206 210 218 225 232 240 272 268 275 0 74 80 102 67 20 350 342 343 335 337 335 324 326 326
202 197 191 192 194 193 196 198 201 192 183 191 194 206 193 187 193 200 205 208 205 219 211 223 238 260 263 290 304 268 279 274 272 299 315 312 316 323 332 337 342 340 336
203 196 192 194 196 199 198 194 192 183 189 190 189 193 189 191 193 199 195 203 220 227 228 214 211 222 229 278 261 292 300 297 317 310 314 304 304 309 321 321 330 339 344
200 196 196 196 196 199 201 199 198 195 189 197 196 197 201 202 201 200 211 219 225 234 218 221 229 241 239 250 266 261 285 269 265 271 275 286 281 288 305 313 328 340 354
201 196 195 198 198 199 199 200 204 205 201 197 208 216 213 208 208 207 211 214 223 222 219 220 227 235 246 247 262 265 262 267 271 264 268 277 276 295 307 312 324 328 344
201 199 198 198 198 197 196 199 201 206 210 206 209 220 216 212 206 208 210 217 226 216 219 226 225 235 269 292 288 282 274 267 262 268 257 256 281 289 295 278 290 300 317
197 196 195 193 196 194 191 195 197 201 200 203 212 220 221 218 212 211 212 220 225 220 224 224 229 249 278 284 311 312 290 262 242 245 233 245 237 254 283 275 273 290 315
197 197 197 196 193 196 199 202 203 204 206 214 214 217 223 223 218 215 218 222 225 221 220 237 249 254 253 258 298 324 342 346 273 230 230 229 235 257 288 296 302 275 309
193 195 195 197 196 198 203 200 201 205 215 216 212 214 214 223 224 220 217 220 222 224 229 230 237 241 247 253 238 290 357 259 320 251 228 248 260 277 288 283 296 278 289
195 186 187 194 197 200 203 201 203 204 208 218 220 221 222 224 225 222 218 218 220 221 220 220 227 233 233 240 244 229 248 251 199 318 281 253 266 270 257 238 247 260 288
156 183 190 191 201 202 201 207 209 213 219 219 224 224 224 224 224 224 221 219 220 220 218 217 219 219 229 232 231 231 234 243 252 221 256 279 272 283 266 246 253 260 271
79 108 188 229 212 203 201 206 216 221 222 221 223 219 225 223 223 224 223 221 219 217 217 218 224 230 232 236 237 242 245 234 259 249 257 277 258 280 236 226 235 251 248
Height
824 824 825 827 827 828 829 830 831 832 832 832 833 833 833 834 834 834 834 833 834 834 833 834 834 834 834 833 832 832 832 832 832 831 831 831 831 830 830 830 830 830 829
821 823 825 827 827 828 829 830 831 832 833 834 834 835 835 835 835 835 836 836 836 836 836 835 836 837 836 835 834 834 834 834 833 833 833 833 833 833 833 833 832 833 832
820 823 825 826 827 828 829 830 832 833 834 834 835 836 836 837 837 837 838 838 838 837 838 837 837 838 838 837 837 837 836 835 835 833 834 835 835 835 835 835 834 835 835
821 823 825 826 827 829 830 831 832 833 834 835 836 837 838 838 839 839 839 839 839 839 839 839 839 839 839 839 839 839 838 838 838 837 837 837 836 836 836 837 836 836 836
821 823 824 826 827 829 830 831 832 834 835 836 836 837 838 839 839 839 840 840 841 841 841 841 841 840 841 841 841 840 841 840 839 840 840 839 838 838 837 838 837 837 837
821 823 824 825 827 828 830 831 833 834 835 835 837 838 839 839 840 840 841 841 842 843 843 843 843 843 843 842 843 842 842 842 842 842 842 841 840 840 840 840 839 838 838
821 822 824 825 827 828 830 831 832 834 835 836 837 838 839 840 841 841 842 842 843 844 844 844 844 844 844 844 844 843 844 843 843 843 842 842 841 841 841 841 840 839 840
820 822 823 825 827 828 830 831 832 833 835 836 838 839 840 841 841 842 843 843 844 844 844 845 845 845 845 845 845 844 844 845 845 844 843 843 843 843 842 841 841 840 840
820 822 823 825 826 828 829 831 832 834 835 836 837 838 839 841 842 842 843 844 845 845 845 845 846 846 846 846 845 845 845 846 845 845 845 844 844 844 843 842 841 841 840
820 822 823 825 826 828 829 830 832 833 834 836 837 839 840 841 842 843 844 845 845 846 846 847 847 847 846 846 846 846 846 846 845 846 845 845 845 845 844 843 842 842 841
819 820 822 824 826 827 829 830 832 833 835 836 837 839 840 842 843 843 844 845 846 846 846 847 847 847 846 846 846 847 846 846 846 846 846 845 845 845 845 844 844 843 842
816 819 820 823 825 827 828 830 832 833 835 837 838 840 841 842 843 844 845 845 846 847 847 848 848 848 847 846 846 847 846 846 846 846 846 846 845 846 845 844 844 843 842
814 818 820 823 824 826 828 830 831 833 835 837 838 840 841 842 843 844 845 845 846 847 847 848 848 848 847 846 846 846 846 846 845 845 845 845 844 845 845 844 844 843 842
812 816 819 822 824 827 828 829 831 833 834 837 838 840 841 843 844 844 845 845 846 847 847 847 847 847 847 847 847 846 846 846 846 845 845 845 844 844 844 843 843 843 841
811 813 816 820 823 826 828 830 831 832 835 836 838 839 840 841 842 843 844 845 845 846 846 846 846 846 846 846 846 846 846 846 845 845 845 844 844 844 843 842 841 841 840
808 810 813 816 819 822 824 827 828 831 833 834 835 836 837 838 839 841 842 842 842 843 843 843 843 843 843 844 844 844 844 844 844 844 844 843 843 842 842 841 840 839 838
802 806 809 812 816 819 822 825 827 829 830 832 833 834 836 837 838 839 839 840 840 841 841 841 841 841 842 842 842 842 842 843 843 843 843 842 842 841 841 840 839 838 837
797 801 805 809 813 817 821 823 825 827 829 831 833 834 835 836 837 838 838 838 839 839 840 840 840 840 841 841 840 841 841 841 841 841 841 840 840 840 840 839 838 837 836
792 796 801 805 809 814 818 822 824 826 828 829 830 832 833 834 835 836 837 837 838 838 838 839 838 839 839 839 839 839 838 838 839 839 839 838 838 838 838 838 837 837 836
788 792 797 801 805 810 815 819 821 823 825 827 828 829 831 832 834 835 836 837 837 838 838 838 838 838 838 838 838 837 837 837 838 838 838 837 837 837 837 836 836 834 833
784 787 791 796 802 807 811 815 818 819 822 824 826 827 829 831 832 833 834 835 836 837 838 838 838 839 839 839 838 835 833 833 834 835 836 836 835 835 835 835 834 834 833
779 784 788 793 798 802 806 810 814 818 821 823 825 826 827 829 831 832 834 835 836 837 837 838 839 839 839 838 839 838 838 836 835 836 836 836 835 835 835 834 834 833 831
779 783 787 791 796 800 805 810 814 818 820 821 823 824 825 827 828 829 831 832 834 835 836 837 837 837 838 838 839 840 841 841 836 833 834 834 834 834 834 833 832 832 831
780 784 788 791 795 799 803 807 810 813 815 816 819 821 822 824 825 826 827 829 830 831 831 832 833 834 835 836 836 836 836 837 839 838 834 832 831 831 830 830 829 829 829
784 787 790 793 795 797 800 804 808 810 812 814 816 818 819 820 821 822 823 824 825 827 829 829 829 830 831 832 833 833 834 834 836 836 835 831 830 830 829 829 828 828 827
790 792 794 796 797 799 801 805 807 809 811 812 813 814 815 816 817 817 818 819 820 822 824 825 827 828 830 830 830 831 832 832 833 835 835 831 829 826 826 826 825 825 825